GW3202 Weather Reports


time (UTC)temp
F
wind
direction
speed
knots
gust
knots
rain 1hr
in
rain 24hr
in
rain mn
in
humidity
%
barometer
mb
20260510174002 81 164 3.5 11.3 0.00 0.00 0.00 44 1019.7
20260510173002 81 177 2.6 10.4 0.00 0.00 0.00 43 1019.9
20260510172003 80 137 5.2 10.4 0.00 0.00 0.00 44 1019.9
20260510171003 80 162 1.7 11.3 0.00 0.00 0.00 44 1020.0
20260510170003 79 164 4.3 11.3 0.00 0.00 0.00 44 1020.0
20260510165003 79 165 2.6 12.2 0.00 0.00 0.00 44 1020.2
20260510164002 78 145 3.5 11.3 0.00 0.00 0.00 44 1020.2
20260510163003 78 157 5.2 10.4 0.00 0.00 0.00 44 1020.2
20260510162003 78 168 4.3 10.4 0.00 0.00 0.00 43 1020.3
20260510161002 77 192 3.5 11.3 0.00 0.00 0.00 44 1020.3
20260510160002 77 154 6.1 12.2 0.00 0.00 0.00 42 1020.2
20260510155003 77 171 2.6 12.2 0.00 0.00 0.00 43 1020.2
20260510154002 77 161 4.3 8.7 0.00 0.00 0.00 44 1020.3
20260510153003 77 148 4.3 8.7 0.00 0.00 0.00 45 1020.2
20260510152002 77 188 0.9 6.1 0.00 0.00 0.00 44 1020.3
20260510151003 77 161 4.3 7.0 0.00 0.00 0.00 46 1020.5
20260510150003 75 152 1.7 5.2 0.00 0.00 0.00 47 1020.4
20260510145002 76 257 0.9 7.0 0.00 0.00 0.00 47 1020.3
20260510144003 75 156 2.6 6.1 0.00 0.00 0.00 50 1020.1
20260510142003 69 347 0.9 2.6 0.00 0.00 0.00 62 1020.0
20260510141003 69 299 0.0 1.7 0.00 0.00 0.00 63 1020.0
20260510140003 70 8 0.0 2.6 0.00 0.00 0.00 61 1020.0
20260510135003 70 161 0.9 2.6 0.00 0.00 0.00 62 1019.8
20260510134003 66 358 0.0 2.6 0.00 0.00 0.00 69 1019.9
20260510133002 65 278 0.9 2.6 0.00 0.00 0.00 69 1019.6
20260510132003 65 102 0.0 1.7 0.00 0.00 0.00 69 1019.5
20260510131003 65 129 0.9 2.6 0.00 0.00 0.00 70 1019.4
20260510130002 63 131 0.9 2.6 0.00 0.00 0.00 72 1019.2
20260510125002 62 117 0.0 1.7 0.00 0.00 0.00 74 1018.9
20260510124004 62 267 0.0 1.7 0.00 0.00 0.00 76 1018.9
20260510123003 61 139 0.0 1.7 0.00 0.00 0.00 77 1018.6
20260510122003 61 240 0.0 2.6 0.00 0.00 0.00 76 1018.6
20260510121003 63 220 0.0 1.7 0.00 0.00 0.00 74 1018.5
20260510120003 63 145 0.0 1.7 0.00 0.00 0.00 71 1018.2
20260510114003 64 137 0.0 2.6 0.00 0.00 0.00 72 1018.4
20260510113003 63 262 0.0 2.6 0.00 0.00 0.00 72 1018.4
20260510112003 64 148 0.9 4.3 0.00 0.00 0.00 72 1018.3
20260510110003 64 156 0.0 2.6 0.00 0.00 0.00 70 1018.3
20260510105003 64 131 0.9 4.3 0.00 0.00 0.00 70 1018.4
20260510104004 64 143 2.6 4.3 0.00 0.00 0.00 71 1018.4
20260510103002 64 286 0.0 1.7 0.00 0.00 0.00 72 1018.5
20260510100003 65 262 0.9 5.2 0.00 0.00 0.00 72 1018.6
20260510095003 65 289 1.7 5.2 0.00 0.00 0.00 71 1018.7
20260510093003 65 161 0.9 2.6 0.00 0.00 0.00 70 1018.7
20260510091004 66 193 0.9 2.6 0.00 0.00 0.00 70 1018.9
20260510090003 66 261 0.0 4.3 0.00 0.00 0.00 70 1019.0
20260510085003 66 287 1.7 4.3 0.00 0.00 0.00 71 1019.0
20260510084003 67 333 1.7 2.6 0.00 0.00 0.00 70 1018.7
20260510083003 66 330 0.9 2.6 0.00 0.00 0.00 70 1018.9
20260510082004 66 92 0.9 2.6 0.00 0.00 0.00 70 1019.1
20260510081004 66 82 0.0 1.7 0.00 0.00 0.00 70 1019.2
20260510080003 66 244 0.9 1.7 0.00 0.00 0.00 70 1019.1
20260510075003 67 283 1.7 1.7 0.00 0.00 0.00 69 1019.1
20260510074003 67 286 0.9 1.7 0.00 0.00 0.00 68 1019.4
20260510073005 68 169 0.9 5.2 0.00 0.00 0.00 65 1019.3
20260510072003 68 215 0.9 4.3 0.00 0.00 0.00 63 1019.4
20260510071006 69 353 0.9 6.1 0.00 0.00 0.00 62 1019.3
20260510070011 68 188 2.6 7.8 0.00 0.00 0.00 61 1019.5
20260510065003 69 80 2.6 7.0 0.00 0.00 0.00 61 1019.4
20260510064004 69 356 0.9 5.2 0.00 0.00 0.00 61 1019.3
20260510063003 69 301 2.6 5.2 0.00 0.00 0.00 62 1019.4
20260510062003 69 140 0.9 2.6 0.00 0.00 0.00 62 1019.5
20260510061004 69 152 0.9 12.2 0.00 0.00 0.00 61 1019.6
20260510060004 69 130 0.9 17.4 0.00 0.00 0.00 61 1019.8
20260510055003 69 102 7.0 19.1 0.00 0.00 0.00 62 1019.5
20260510054003 69 137 13.0 20.0 0.00 0.00 0.00 61 1019.3
20260510053003 69 131 8.7 19.1 0.00 0.00 0.00 61 1019.3
20260510051003 68 143 10.4 24.3 0.00 0.00 0.00 61 1019.3
20260510045003 69 152 10.4 24.3 0.00 0.00 0.00 60 1019.1
20260510044003 69 137 8.7 24.3 0.00 0.00 0.00 60 1019.0
20260510043003 69 133 10.4 19.1 0.00 0.00 0.00 56 1018.9
20260510041003 71 148 6.1 13.9 0.00 0.00 0.00 50 1018.6
20260510040003 71 150 7.8 18.2 0.00 0.00 0.00 45 1018.8
20260510035003 71 151 9.6 19.1 0.00 0.00 0.00 46 1018.8
20260510034003 72 155 7.8 17.4 0.00 0.00 0.00 44 1018.6
20260510033003 72 156 12.2 19.1 0.00 0.00 0.00 42 1018.6
20260510032003 72 140 8.7 22.6 0.00 0.00 0.00 40 1018.4
20260510031003 72 144 10.4 20.0 0.00 0.00 0.00 40 1018.4
20260510030004 72 142 10.4 24.3 0.00 0.00 0.00 41 1018.3
20260510025003 72 176 8.7 24.3 0.00 0.00 0.00 39 1018.2
20260510023005 73 150 12.2 20.9 0.00 0.00 0.00 40 1017.8
20260510022004 73 142 7.0 26.1 0.00 0.00 0.00 39 1017.7
20260510021003 72 146 11.3 20.0 0.00 0.00 0.00 44 1017.5
20260510020003 72 142 11.3 22.6 0.00 0.00 0.00 52 1017.3
20260510015003 73 120 11.3 22.6 0.00 0.00 0.00 52 1017.1
20260510014004 74 121 5.2 21.7 0.00 0.00 0.00 53 1017.3
20260510013003 74 135 8.7 20.0 0.00 0.00 0.00 55 1017.1
20260510011003 75 147 7.8 20.0 0.00 0.00 0.00 53 1016.6
20260510010003 75 161 12.2 20.0 0.00 0.00 0.00 53 1016.7
20260510005003 76 183 8.7 20.0 0.00 0.00 0.00 53 1016.4
20260510004003 77 133 12.2 20.0 0.00 0.00 0.00 51 1016.2
20260510003004 78 176 9.6 20.0 0.00 0.00 0.00 49 1016.2
20260510002004 80 154 7.8 15.6 0.00 0.00 0.00 45 1016.2
20260510000004 81 163 7.0 20.9 0.00 0.00 0.00 44 1015.9
20260509235004 80 182 7.0 19.1 0.00 0.00 0.00 44 1016.0
20260509234003 80 173 7.8 19.1 0.00 0.00 0.00 44 1015.9
20260509233004 81 162 7.8 18.2 0.00 0.00 0.00 44 1015.8
20260509232004 81 159 6.1 18.2 0.00 0.00 0.00 43 1015.9
20260509231003 80 188 10.4 19.1 0.00 0.00 0.00 43 1015.9
20260509230003 82 151 12.2 20.0 0.00 0.00 0.00 43 1015.9
20260509225003 81 156 10.4 18.2 0.00 0.00 0.00 44 1015.8
20260509224003 81 166 8.7 17.4 0.00 0.00 0.00 43 1015.9
20260509223003 81 175 4.3 20.0 0.00 0.00 0.00 43 1015.9
20260509222004 82 172 8.7 19.1 0.00 0.00 0.00 42 1015.9
20260509220003 83 165 5.2 17.4 0.00 0.00 0.00 41 1016.0
20260509213003 86 165 5.2 17.4 0.00 0.00 0.00 39 1016.0
20260509212004 86 181 1.7 12.2 0.00 0.00 0.00 37 1016.2
20260509211003 83 177 3.5 17.4 0.00 0.00 0.00 39 1016.2
20260509210004 83 159 5.2 17.4 0.00 0.00 0.00 37 1016.6
20260509205003 84 229 4.3 13.9 0.00 0.00 0.00 35 1016.6
20260509204004 85 245 2.6 18.2 0.00 0.00 0.00 34 1016.7
20260509203003 86 256 4.3 14.8 0.00 0.00 0.00 33 1017.0
20260509202004 86 179 2.6 17.4 0.00 0.00 0.00 33 1016.9
20260509201004 86 177 6.1 18.2 0.00 0.00 0.00 32 1017.1
20260509200004 87 173 2.6 14.8 0.00 0.00 0.00 32 1017.3
20260509195004 87 206 4.3 14.8 0.00 0.00 0.00 31 1017.2
20260509194004 86 212 2.6 13.0 0.00 0.00 0.00 32 1017.2
20260509193003 85 172 7.8 17.4 0.00 0.00 0.00 33 1017.4
20260509191003 85 174 5.2 14.8 0.00 0.00 0.00 34 1018.0
20260509190003 83 174 6.1 17.4 0.00 0.00 0.00 35 1018.0
20260509185003 83 145 3.5 18.2 0.00 0.00 0.00 36 1018.1
20260509184004 84 151 6.1 18.2 0.00 0.00 0.00 36 1018.2
20260509183004 83 169 5.2 17.4 0.00 0.00 0.00 38 1018.3
20260509182004 84 135 4.3 18.2 0.00 0.00 0.00 38 1018.3
20260509180004 83 169 5.2 13.9 0.00 0.00 0.00 40 1018.3
20260509175005 82 170 4.3 13.0 0.00 0.00 0.00 42 1018.3